ROMMA est une association bénévole à but non lucratif. Votre soutien est indispensable : ADHERER à ROMMA ou FAIRE un DON

Crêts du Salève - (74, Haute-Savoie)

Salève (1270 m)   Longitude: 6° 10' 28'' E   Latitude: 46° 7' 42'' N Station romma n°73
 

Détail journalier du     <<     >>

Température Humidité Vent Dir Rafale Dir. rafale Ensol.
Heure (°C) (%) (km/h) (km/h) (min)
01:00 1.28536SSE56SSE0
02:00 1.47841SSE58SSE0
03:00 2.16838SSE50SSE0
04:00 -0.29340SSE64SSE0
05:00 -0.69834SSE50SSE0
06:00 -0.19824E37ESE0
07:00 0.19812SE26SE0
08:00 0.69820SE50SE0
09:00 0.69930SE44SE0
10:00 0.79923E32ESE0
11:00 1.39917E26E0
12:00 0.89911E19E0
13:00 -0.29912S23S0
14:00 0.59932S50S0
15:00 0.69935SO56SSO0
16:00 0.19935SSO58SSO0
17:00 -0.49946SSO64SO0
18:00 -1.19948SO72SO0
19:00 -1.29943SO60SO0
20:00 -1.29938SO55SO0
21:00 -1.39937SO50SSO0
22:00 -1.19934SO47SO0
23:00 -1.59928SO42SO0
minuit -1.99928SO39SO0

Graphique du 02-03-2020

 

Serveur OMMA